El Centro, CA

1:19 AM PDT on April 30, 2017 (GMT -0700)
El Centro Naval Air Facility

Weather History for KNJK - February, 2014

Change the Weather History Date:

Tuesday, February 4, 2014

  Actual Average Record
Temperature  
Mean Temperature 57 °F -  
Max Temperature 66 °F 68 °F 81 °F (2015)
Min Temperature 48 °F 44 °F 27 °F (2011)
Degree Days  
Heating Degree Days 8    
Growing Degree Days 7 (Base 50)    
Moisture  
Dew Point 37 °F    
Average Humidity 46    
Maximum Humidity 63    
Minimum Humidity 30    
Precipitation  
Precipitation 0.00 in - - ()
Sea Level Pressure  
Sea Level Pressure 30.04 in    
Wind  
Wind Speed 9 mph (SW)    
Max Wind Speed 16 mph    
Max Gust Speed -    
Visibility 10 miles    
Events      
Averages and records for this station are not official NWS values.
T = Trace of Precipitation, MM = Missing Value Source: NWS Daily Summary

Daily Weather History Graph

Daily Weather History Graph

Search for Another Location

Airport or City:

Trip Planner

Search our weather history database for the weather conditions in past years. The results will help you decide how hot, cold, wet, or windy it might be!

Date:

Astronomy

Feb. 04, 2014 Rise Set
Actual Time 6:35 AM PST 5:18 PM PST
Civil Twilight 6:09 AM PST 5:43 PM PST
Nautical Twilight 5:40 AM PST 6:13 PM PST
Astronomical Twilight 5:11 AM PST 6:42 PM PST
Moon 9:36 AM PST (2/4) 10:54 PM PST (2/4)
Length of Visible Light 11h 34m
Length of Day
10h 42m
Waxing Crescent, 30% of the Moon is Illuminated
Feb 4
Waxing Crescent
Feb 6
First Quarter
Feb 14
Full
Feb 22
Last Quarter
Mar 1
New

Hourly Weather History & Observations

Time (PST) Temp. Dew Point Humidity Pressure Visibility Wind Dir Wind Speed Gust Speed Precip Events Conditions
12:56 AM 50.0 °F 35.1 °F 57% 30.00 in 10.0 mi WSW 9.2 mph - N/A   Clear
1:56 AM 54.0 °F 39.0 °F 57% 30.01 in 10.0 mi WSW 16.1 mph - N/A   Clear
2:56 AM 50.0 °F 37.0 °F 61% 30.01 in 10.0 mi West 9.2 mph - N/A   Clear
3:56 AM 51.1 °F 36.0 °F 56% 30.01 in 10.0 mi WSW 12.7 mph - N/A   Clear
4:56 AM 52.0 °F 37.0 °F 57% 30.02 in 10.0 mi West 12.7 mph - N/A   Clear
5:56 AM 50.0 °F 37.0 °F 61% 30.05 in 10.0 mi WSW 11.5 mph - N/A   Clear
6:56 AM 48.0 °F 36.0 °F 63% 30.06 in 10.0 mi WSW 6.9 mph - N/A   Partly Cloudy
7:56 AM 54.0 °F 37.9 °F 55% 30.08 in 10.0 mi WSW 5.8 mph - N/A   Mostly Cloudy
8:56 AM 59.0 °F 39.0 °F 48% 30.10 in 10.0 mi SW 4.6 mph - N/A   Mostly Cloudy
9:56 AM 62.1 °F 36.0 °F 38% 30.11 in 10.0 mi Variable 5.8 mph - N/A   Mostly Cloudy
10:56 AM 64.0 °F 35.1 °F 34% 30.10 in 10.0 mi NW 3.5 mph - N/A   Mostly Cloudy
11:56 AM 64.0 °F 35.1 °F 34% 30.06 in 10.0 mi WNW 3.5 mph - N/A   Mostly Cloudy
12:56 PM 64.9 °F 33.1 °F 31% 30.03 in 10.0 mi Variable 3.5 mph - N/A   Mostly Cloudy
1:56 PM 66.9 °F 34.0 °F 30% 30.01 in 10.0 mi Variable 3.5 mph - N/A   Mostly Cloudy
2:56 PM 66.9 °F 35.1 °F 31% 30.00 in 10.0 mi ESE 8.1 mph - N/A   Scattered Clouds
3:56 PM 66.0 °F 36.0 °F 33% 30.00 in 10.0 mi East 10.4 mph - N/A   Mostly Cloudy
4:56 PM 62.1 °F 36.0 °F 38% 30.01 in 10.0 mi East 9.2 mph - N/A   Mostly Cloudy
5:56 PM 60.1 °F 37.9 °F 44% 30.01 in 10.0 mi ESE 9.2 mph - N/A   Mostly Cloudy
6:56 PM 60.1 °F 39.0 °F 46% 30.02 in 10.0 mi SE 10.4 mph - N/A   Mostly Cloudy
7:56 PM 59.0 °F 39.0 °F 48% 30.04 in 10.0 mi SE 4.6 mph - N/A   Mostly Cloudy
8:56 PM 57.0 °F 37.0 °F 47% 30.06 in 10.0 mi South 5.8 mph - N/A   Mostly Cloudy
9:56 PM 57.9 °F 36.0 °F 44% 30.06 in 10.0 mi SW 8.1 mph - N/A   Mostly Cloudy
10:56 PM 57.9 °F 39.9 °F 51% 30.07 in 10.0 mi WSW 8.1 mph - N/A   Mostly Cloudy
11:56 PM 59.0 °F 39.9 °F 49% 30.07 in 10.0 mi West 13.8 mph - N/A   Overcast